This is the latest recevied weather packets stored in our database for station/object KB4MOX. If no packets are shown the sender has not sent any weather packets the latest 10 day(s).
| Time | Temp. | Humidity | Pressure | Rain* | Wind** | Luminosity | Snow |
|---|---|---|---|---|---|---|---|
| 1788481232 | 30° C | 62% | 1016.1 hPa | 0 mm | - | 0 W/m² | - |
| 1788480928 | 30.56° C | 61% | 1015.9 hPa | 0 mm | - | 0 W/m² | - |
| 1788480627 | 30.56° C | 60% | 1016 hPa | 0 mm | - | 0 W/m² | - |
| 1788480327 | 31.11° C | 59% | 1015.8 hPa | 0 mm | - | 0 W/m² | - |
| 1788480024 | 31.11° C | 58% | 1015.7 hPa | 0 mm | - | 1 W/m² | - |
| 1788479733 | 31.67° C | 58% | 1015.7 hPa | 0 mm | - | 2 W/m² | - |
| 1788479419 | 31.67° C | 57% | 1015.8 hPa | 0 mm | - | 4 W/m² | - |
| 1788479114 | 31.67° C | 57% | 1015.5 hPa | 0 mm | - | 6 W/m² | - |
| 1788478810 | 32.22° C | 56% | 1015.5 hPa | 0 mm | - | 10 W/m² | - |
| 1788478507 | 32.78° C | 55% | 1015.4 hPa | 0 mm | - | 13 W/m² | - |
| 1788478202 | 32.78° C | 54% | 1015.4 hPa | 0 mm | - | 17 W/m² | - |
| 1788477897 | 33.33° C | 53% | 1015.2 hPa | 0 mm | - | 21 W/m² | - |
| 1788477596 | 33.33° C | 52% | 1015.2 hPa | 0 mm | - | 25 W/m² | - |
| 1788477292 | 33.33° C | 52% | 1015.3 hPa | 0 mm | - | 29 W/m² | - |
| 1788476991 | 33.89° C | 51% | 1015.2 hPa | 0 mm | - | 33 W/m² | - |
| 1788476687 | 33.89° C | 50% | 1015.2 hPa | 0 mm | - | 36 W/m² | - |
| 1788476384 | 34.44° C | 49% | 1015.1 hPa | 0 mm | - | 48 W/m² | - |
| 1788476078 | 34.44° C | 48% | 1015.2 hPa | 0 mm | - | 55 W/m² | - |
| 1788475775 | 35° C | 48% | 1015.1 hPa | 0 mm | - | 72 W/m² | - |
| 1788475472 | 35° C | 47% | 1015.2 hPa | 0 mm | - | 93 W/m² | - |
| 1788475168 | 35° C | 46% | 1015.2 hPa | 0 mm | - | 94 W/m² | - |
| 1788474866 | 35.56° C | 46% | 1015.1 hPa | 0 mm | - | 112 W/m² | - |
| 1788474565 | 35° C | 46% | 1015.1 hPa | 0 mm | - | 127 W/m² | - |
| 1788474261 | 35.56° C | 45% | 1015.3 hPa | 0 mm | - | 139 W/m² | - |
| 1788473955 | 35.56° C | 45% | 1015 hPa | 0 mm | - | 151 W/m² | - |
* Rain latest hour (hover to see other rain measurements)
** Current wind speed in m/s (hover to see current wind gust speed)